Time,TemperatureF,DewpointF,PressureIn,WindDirection,WindDirectionDegrees,WindSpeedMPH,WindSpeedGustMPH,Humidity,HourlyPrecipIn,Conditions,Clouds,dailyrainin,SoftwareType,DateUTC
2013-07-23 00:01:00,72.1,64.5,30.00,NE,45,0.0,0.0,77,0.00,,,0.00,WUHU216HW,2013-07-22 22:01:00,
2013-07-23 00:06:00,72.3,64.7,30.00,NNE,23,0.0,0.0,77,0.00,,,0.00,WUHU216HW,2013-07-22 22:06:00,
2013-07-23 00:11:00,72.5,64.8,30.00,SE,135,0.0,0.0,77,0.00,,,0.00,WUHU216HW,2013-07-22 22:11:00,
2013-07-23 00:16:00,72.8,65.2,30.00,SSE,158,0.0,1.1,77,0.00,,,0.00,WUHU216HW,2013-07-22 22:16:00,
2013-07-23 00:21:00,73.2,65.6,30.00,SSW,203,0.0,1.1,77,0.00,,,0.00,WUHU216HW,2013-07-22 22:21:00,
2013-07-23 00:26:00,73.2,65.6,30.00,NNW,338,0.0,0.6,77,0.00,,,0.00,WUHU216HW,2013-07-22 22:26:00,
2013-07-23 00:31:00,73.2,65.6,30.00,NNW,338,0.6,0.6,77,0.00,,,0.00,WUHU216HW,2013-07-22 22:31:00,
2013-07-23 00:36:00,72.5,64.8,30.00,NNW,338,0.0,0.6,77,0.00,,,0.00,WUHU216HW,2013-07-22 22:36:00,
2013-07-23 00:41:00,72.1,64.9,30.00,NNW,338,0.0,0.0,78,0.00,,,0.00,WUHU216HW,2013-07-22 22:41:00,
2013-07-23 00:46:00,71.9,64.7,30.00,NNW,338,0.0,0.0,78,0.00,,,0.00,WUHU216HW,2013-07-22 22:46:00,
2013-07-23 00:51:00,71.7,64.1,30.01,North,0,0.0,0.0,77,0.00,,,0.00,WUHU216HW,2013-07-22 22:51:00,
2013-07-23 00:56:00,71.7,64.1,30.01,NE,45,0.0,0.0,77,0.00,,,0.00,WUHU216HW,2013-07-22 22:56:00,
2013-07-23 01:01:00,71.7,64.1,30.00,East,90,0.0,0.0,77,0.00,,,0.00,WUHU216HW,2013-07-22 23:01:00,
2013-07-23 01:06:00,71.7,64.1,30.00,ENE,68,0.0,0.0,77,0.00,,,0.00,WUHU216HW,2013-07-22 23:06:00,
2013-07-23 01:11:00,71.7,64.1,30.00,ENE,68,0.0,0.0,77,0.00,,,0.00,WUHU216HW,2013-07-22 23:11:00,
2013-07-23 01:16:00,71.9,64.3,30.00,ENE,68,0.0,0.0,77,0.00,,,0.00,WUHU216HW,2013-07-22 23:16:00,
2013-07-23 01:21:00,71.7,64.1,30.00,North,0,0.0,0.0,77,0.00,,,0.00,WUHU216HW,2013-07-22 23:21:00,
2013-07-23 01:26:00,71.4,63.8,30.00,North,0,0.0,0.0,77,0.00,,,0.00,WUHU216HW,2013-07-22 23:26:00,
2013-07-23 01:31:00,71.4,63.8,30.00,NE,45,0.0,0.0,77,0.00,,,0.00,WUHU216HW,2013-07-22 23:31:00,
2013-07-23 01:36:00,71.2,63.2,29.99,North,0,0.0,0.0,76,0.00,,,0.00,WUHU216HW,2013-07-22 23:36:00,
2013-07-23 01:41:00,70.8,62.8,29.99,North,0,0.0,0.0,76,0.00,,,0.00,WUHU216HW,2013-07-22 23:41:00,
2013-07-23 01:46:00,70.8,62.8,29.99,North,0,0.0,0.0,76,0.00,,,0.00,WUHU216HW,2013-07-22 23:46:00,
2013-07-23 01:53:00,70.7,62.8,29.99,NNE,23,0.8,0.8,76,0.00,,,0.00,WUHU216HW,2013-07-22 23:53:00,
2013-07-23 01:59:00,70.3,61.9,29.99,NNE,23,0.0,1.3,75,0.00,,,0.00,WUHU216HW,2013-07-22 23:59:00,
2013-07-23 02:03:00,70.3,61.9,29.99,NNE,23,0.0,1.3,75,0.00,,,0.00,WUHU216HW,2013-07-23 00:03:00,
2013-07-23 02:08:00,70.3,61.9,29.99,NNE,23,0.0,0.0,75,0.00,,,0.00,WUHU216HW,2013-07-23 00:08:00,
2013-07-23 02:14:00,70.3,61.9,29.99,North,0,0.0,0.0,75,0.00,,,0.00,WUHU216HW,2013-07-23 00:14:00,
2013-07-23 02:19:00,70.3,61.9,29.99,North,0,0.0,0.0,75,0.00,,,0.00,WUHU216HW,2013-07-23 00:19:00,
2013-07-23 02:24:00,70.1,61.7,29.99,NNE,23,0.0,0.0,75,0.00,,,0.00,WUHU216HW,2013-07-23 00:24:00,
2013-07-23 02:28:00,69.9,61.6,29.99,North,0,0.0,0.0,75,0.00,,,0.00,WUHU216HW,2013-07-23 00:28:00,
2013-07-23 02:33:00,70.1,61.7,29.99,NNE,23,0.0,0.0,75,0.00,,,0.00,WUHU216HW,2013-07-23 00:33:00,
2013-07-23 02:38:00,70.1,62.1,29.98,NE,45,0.0,0.0,76,0.00,,,0.00,WUHU216HW,2013-07-23 00:38:00,
2013-07-23 02:43:00,69.9,61.9,29.98,NNE,23,0.0,0.0,76,0.00,,,0.00,WUHU216HW,2013-07-23 00:43:00,
2013-07-23 02:48:00,69.9,61.9,29.98,North,0,0.0,0.0,76,0.00,,,0.00,WUHU216HW,2013-07-23 00:48:00,
2013-07-23 02:54:00,69.9,61.9,29.99,North,0,0.0,0.0,76,0.00,,,0.00,WUHU216HW,2013-07-23 00:54:00,
2013-07-23 02:59:00,69.9,61.9,29.99,North,0,0.0,0.0,76,0.00,,,0.00,WUHU216HW,2013-07-23 00:59:00,
2013-07-23 03:03:00,69.8,62.1,29.99,North,0,0.0,0.0,77,0.00,,,0.00,WUHU216HW,2013-07-23 01:03:00,
2013-07-23 03:08:00,69.6,62.0,29.98,North,0,0.0,0.0,77,0.00,,,0.00,WUHU216HW,2013-07-23 01:08:00,
2013-07-23 03:13:00,69.6,62.0,29.99,North,0,0.0,0.0,77,0.00,,,0.00,WUHU216HW,2013-07-23 01:13:00,
2013-07-23 03:18:00,69.6,62.0,29.98,North,0,0.0,0.0,77,0.00,,,0.00,WUHU216HW,2013-07-23 01:18:00,
2013-07-23 03:23:00,69.6,62.0,29.98,North,0,0.0,0.0,77,0.00,,,0.00,WUHU216HW,2013-07-23 01:23:00,
2013-07-23 03:28:00,69.4,61.4,29.98,East,90,0.0,0.0,76,0.00,,,0.00,WUHU216HW,2013-07-23 01:28:00,
2013-07-23 03:33:00,69.2,61.3,29.97,East,90,0.0,0.0,76,0.00,,,0.00,WUHU216HW,2013-07-23 01:33:00,
2013-07-23 03:38:00,69.4,61.4,29.98,East,90,0.0,0.0,76,0.00,,,0.00,WUHU216HW,2013-07-23 01:38:00,
2013-07-23 03:43:00,69.4,61.4,29.97,NNE,23,0.0,0.0,76,0.00,,,0.00,WUHU216HW,2013-07-23 01:43:00,
2013-07-23 03:48:00,69.4,61.8,29.98,NNE,23,0.0,0.0,76,0.00,,,0.00,WUHU216HW,2013-07-23 01:48:00,
2013-07-23 03:53:00,69.4,61.4,29.98,NNE,23,0.0,0.0,76,0.00,,,0.00,WUHU216HW,2013-07-23 01:53:00,
2013-07-23 03:58:00,69.2,61.3,29.97,NE,45,0.0,0.0,76,0.00,,,0.00,WUHU216HW,2013-07-23 01:58:00,
2013-07-23 04:03:00,69.2,61.3,29.97,NE,45,0.0,0.0,76,0.00,,,0.00,WUHU216HW,2013-07-23 02:03:00,
2013-07-23 04:04:00,69.0,61.1,29.97,NE,45,0.0,0.0,76,0.00,,,0.00,WUHU216HW,2013-07-23 02:04:00,
2013-07-23 04:09:00,69.0,61.5,29.97,NE,45,0.0,0.0,77,0.00,,,0.00,WUHU216HW,2013-07-23 02:09:00,
2013-07-23 04:14:00,69.0,61.5,29.97,NE,45,0.0,0.0,77,0.00,,,0.00,WUHU216HW,2013-07-23 02:14:00,
2013-07-23 04:19:00,69.0,61.5,29.97,North,0,0.0,0.0,77,0.00,,,0.00,WUHU216HW,2013-07-23 02:19:00,
2013-07-23 04:24:00,69.0,61.5,29.97,NNE,23,0.0,0.0,77,0.00,,,0.00,WUHU216HW,2013-07-23 02:24:00,
2013-07-23 04:29:00,69.0,61.5,29.97,NNE,23,0.0,0.0,77,0.00,,,0.00,WUHU216HW,2013-07-23 02:29:00,
2013-07-23 04:34:00,68.9,61.3,29.97,NNE,23,0.0,0.0,77,0.00,,,0.00,WUHU216HW,2013-07-23 02:34:00,
2013-07-23 04:39:00,68.9,61.3,29.97,NNE,23,0.0,0.0,77,0.00,,,0.00,WUHU216HW,2013-07-23 02:39:00,
2013-07-23 04:44:00,68.9,61.3,29.97,NNE,23,0.0,0.0,77,0.00,,,0.00,WUHU216HW,2013-07-23 02:44:00,
2013-07-23 04:49:00,68.7,61.2,29.97,NNE,23,0.0,0.0,77,0.00,,,0.00,WUHU216HW,2013-07-23 02:49:00,
2013-07-23 04:54:00,68.7,61.2,29.97,NNE,23,0.0,0.0,77,0.00,,,0.00,WUHU216HW,2013-07-23 02:54:00,
2013-07-23 04:59:00,68.7,61.2,29.97,NE,45,0.0,0.0,77,0.00,,,0.00,WUHU216HW,2013-07-23 02:59:00,
2013-07-23 05:04:00,68.7,61.2,29.97,NE,45,0.0,0.0,77,0.00,,,0.00,WUHU216HW,2013-07-23 03:04:00,
2013-07-23 05:09:00,68.7,61.0,29.97,ENE,68,0.0,0.0,77,0.00,,,0.00,WUHU216HW,2013-07-23 03:09:00,
2013-07-23 05:14:00,68.7,61.2,29.97,ENE,68,0.0,0.0,77,0.00,,,0.00,WUHU216HW,2013-07-23 03:14:00,
2013-07-23 05:19:00,68.7,61.5,29.98,NNE,23,0.0,0.0,78,0.00,,,0.00,WUHU216HW,2013-07-23 03:19:00,
2013-07-23 05:24:00,68.5,61.4,29.98,North,0,0.0,0.0,78,0.00,,,0.00,WUHU216HW,2013-07-23 03:24:00,
2013-07-23 05:29:00,68.1,61.1,29.98,North,0,0.0,0.0,78,0.00,,,0.00,WUHU216HW,2013-07-23 03:29:00,
2013-07-23 05:34:00,67.8,60.7,29.98,North,0,0.0,0.0,78,0.00,,,0.00,WUHU216HW,2013-07-23 03:34:00,
2013-07-23 05:39:00,67.8,60.7,29.98,WNW,293,0.0,0.0,78,0.00,,,0.00,WUHU216HW,2013-07-23 03:39:00,
2013-07-23 05:44:00,67.8,60.7,29.98,West,270,0.0,0.0,78,0.00,,,0.00,WUHU216HW,2013-07-23 03:44:00,
2013-07-23 05:49:00,67.8,60.7,29.98,West,270,0.0,0.0,78,0.00,,,0.00,WUHU216HW,2013-07-23 03:49:00,
2013-07-23 05:54:00,67.6,60.5,29.98,NNW,338,1.3,1.3,78,0.00,,,0.00,WUHU216HW,2013-07-23 03:54:00,
2013-07-23 05:59:00,66.9,59.8,29.98,NNW,338,0.0,1.3,78,0.00,,,0.00,WUHU216HW,2013-07-23 03:59:00,
2013-07-23 06:01:00,66.7,59.8,29.98,NNW,338,0.0,1.3,78,0.00,,,0.00,WUHU216HW,2013-07-23 04:01:00,
2013-07-23 06:02:00,66.7,59.6,29.97,NNW,338,0.0,1.3,78,0.00,,,0.00,WUHU216HW,2013-07-23 04:02:00,
2013-07-23 06:03:00,66.7,59.6,29.97,NNW,338,0.0,0.0,78,0.00,,,0.00,WUHU216HW,2013-07-23 04:03:00,
2013-07-23 06:08:00,66.3,59.3,29.97,WSW,248,0.0,0.0,78,0.00,,,0.00,WUHU216HW,2013-07-23 04:08:00,
2013-07-23 06:13:00,66.5,59.1,29.98,WSW,248,0.0,0.0,77,0.00,,,0.00,WUHU216HW,2013-07-23 04:13:00,
2013-07-23 06:18:00,66.9,59.4,29.97,WSW,248,0.0,0.0,77,0.00,,,0.00,WUHU216HW,2013-07-23 04:18:00,
2013-07-23 06:23:00,67.1,59.8,29.98,NE,45,0.0,0.0,77,0.00,,,0.00,WUHU216HW,2013-07-23 04:23:00,
2013-07-23 06:28:00,67.6,60.2,29.97,NE,45,0.0,0.0,77,0.00,,,0.00,WUHU216HW,2013-07-23 04:28:00,
2013-07-23 06:33:00,68.0,60.5,29.98,ENE,68,0.0,0.0,77,0.00,,,0.00,WUHU216HW,2013-07-23 04:33:00,
2013-07-23 06:38:00,68.7,61.4,29.98,NE,45,0.0,0.0,78,0.00,,,0.00,WUHU216HW,2013-07-23 04:38:00,
2013-07-23 06:43:00,69.4,62.4,29.98,NNE,23,0.0,0.0,78,0.00,,,0.00,WUHU216HW,2013-07-23 04:43:00,
2013-07-23 06:48:00,69.6,62.0,29.97,WNW,293,0.0,0.0,77,0.00,,,0.00,WUHU216HW,2013-07-23 04:48:00,
2013-07-23 06:53:00,69.6,62.0,29.98,WNW,293,0.0,0.0,77,0.00,,,0.00,WUHU216HW,2013-07-23 04:53:00,
2013-07-23 06:58:00,70.1,63.1,29.98,East,90,0.0,0.0,78,0.00,,,0.00,WUHU216HW,2013-07-23 04:58:00,
2013-07-23 07:03:00,70.7,63.2,29.98,NNW,338,0.0,0.0,77,0.00,,,0.00,WUHU216HW,2013-07-23 05:03:00,
2013-07-23 07:08:00,71.7,63.9,29.98,NE,45,0.0,0.0,76,0.00,,,0.00,WUHU216HW,2013-07-23 05:08:00,
2013-07-23 07:13:00,72.3,63.9,29.98,East,90,0.0,0.0,75,0.00,,,0.00,WUHU216HW,2013-07-23 05:13:00,
2013-07-23 07:18:00,73.2,65.2,29.98,ENE,68,0.0,0.0,76,0.00,,,0.00,WUHU216HW,2013-07-23 05:18:00,
2013-07-23 07:23:00,74.3,65.8,29.99,NNE,23,0.0,0.0,75,0.00,,,0.00,WUHU216HW,2013-07-23 05:23:00,
2013-07-23 07:28:00,75.9,66.6,29.99,NE,45,0.0,0.0,73,0.00,,,0.00,WUHU216HW,2013-07-23 05:28:00,
2013-07-23 07:33:00,75.9,66.2,29.99,North,0,0.0,0.0,72,0.00,,,0.00,WUHU216HW,2013-07-23 05:33:00,
2013-07-23 07:38:00,75.3,65.7,29.99,ENE,68,0.0,0.0,72,0.00,,,0.00,WUHU216HW,2013-07-23 05:38:00,
2013-07-23 07:43:00,75.9,65.8,29.99,NNE,23,0.0,0.0,71,0.00,,,0.00,WUHU216HW,2013-07-23 05:43:00,
2013-07-23 07:48:00,77.1,66.7,29.99,ESE,113,0.0,0.0,70,0.00,,,0.00,WUHU216HW,2013-07-23 05:48:00,
2013-07-23 07:53:00,78.0,66.2,29.99,ESE,113,0.0,0.0,67,0.00,,,0.00,WUHU216HW,2013-07-23 05:53:00,
2013-07-23 07:58:00,77.5,65.2,30.00,SSW,203,0.0,0.0,66,0.00,,,0.00,WUHU216HW,2013-07-23 05:58:00,
2013-07-23 08:03:00,78.4,66.1,29.99,SSW,203,0.0,0.0,66,0.00,,,0.00,WUHU216HW,2013-07-23 06:03:00,
2013-07-23 08:08:00,78.0,64.8,30.00,SSW,203,0.0,0.6,64,0.00,,,0.00,WUHU216HW,2013-07-23 06:08:00,
2013-07-23 08:13:00,77.5,64.3,30.00,SW,225,0.0,0.6,64,0.00,,,0.00,WUHU216HW,2013-07-23 06:13:00,
2013-07-23 08:18:00,77.5,64.3,30.00,SSW,203,0.0,0.0,64,0.00,,,0.00,WUHU216HW,2013-07-23 06:18:00,
2013-07-23 08:23:00,78.6,65.4,30.00,SE,135,0.0,0.0,64,0.00,,,0.00,WUHU216HW,2013-07-23 06:23:00,
2013-07-23 08:28:00,80.4,64.7,30.01,ESE,113,0.0,1.3,59,0.00,,,0.00,WUHU216HW,2013-07-23 06:28:00,
2013-07-23 08:33:00,81.3,65.6,30.01,SSE,158,0.0,1.3,59,0.00,,,0.00,WUHU216HW,2013-07-23 06:33:00,
2013-07-23 08:38:00,81.3,64.9,30.01,North,0,1.3,1.3,58,0.00,,,0.00,WUHU216HW,2013-07-23 06:38:00,
2013-07-23 08:43:00,81.5,64.7,30.00,NE,45,1.5,1.5,57,0.00,,,0.00,WUHU216HW,2013-07-23 06:43:00,
2013-07-23 08:48:00,82.2,65.3,30.00,North,0,2.4,2.4,57,0.00,,,0.00,WUHU216HW,2013-07-23 06:48:00,
2013-07-23 08:53:00,82.5,65.1,30.01,NE,45,0.0,2.4,56,0.00,,,0.00,WUHU216HW,2013-07-23 06:53:00,
2013-07-23 08:58:00,81.5,63.6,30.01,NE,45,1.7,1.7,55,0.00,,,0.00,WUHU216HW,2013-07-23 06:58:00,
2013-07-23 09:03:00,81.1,63.8,30.01,West,270,0.0,1.7,56,0.00,,,0.00,WUHU216HW,2013-07-23 07:03:00,
2013-07-23 09:08:00,81.1,64.5,30.00,NE,45,0.8,2.4,57,0.00,,,0.00,WUHU216HW,2013-07-23 07:08:00,
2013-07-23 09:13:00,82.5,65.3,30.01,East,81,1.4,2.4,56,0.00,,,0.00,WUHU216HW,2013-07-23 07:13:00,
2013-07-23 09:18:00,83.4,65.0,30.01,NE,49,1.6,2.6,54,0.00,,,0.00,WUHU216HW,2013-07-23 07:18:00,
2013-07-23 09:23:00,83.4,64.0,30.01,ESE,113,0.0,2.6,52,0.00,,,0.00,WUHU216HW,2013-07-23 07:23:00,
2013-07-23 09:28:00,84.0,65.0,30.01,SW,225,0.0,1.5,53,0.00,,,0.00,WUHU216HW,2013-07-23 07:28:00,
2013-07-23 09:33:00,84.7,65.2,30.01,SSE,158,0.0,0.0,52,0.00,,,0.00,WUHU216HW,2013-07-23 07:33:00,
2013-07-23 09:38:00,84.9,65.3,30.01,West,270,1.5,1.5,52,0.00,,,0.00,WUHU216HW,2013-07-23 07:38:00,
2013-07-23 09:43:00,83.4,64.5,30.02,SSW,203,0.0,1.5,53,0.00,,,0.00,WUHU216HW,2013-07-23 07:43:00,
2013-07-23 09:48:00,83.4,63.4,30.01,NNW,338,2.0,2.0,51,0.00,,,0.00,WUHU216HW,2013-07-23 07:48:00,
2013-07-23 09:53:00,83.4,63.4,30.01,NW,315,0.0,2.0,51,0.00,,,0.00,WUHU216HW,2013-07-23 07:53:00,
2013-07-23 09:58:00,84.0,61.6,30.01,NNE,23,1.3,1.3,47,0.00,,,0.00,WUHU216HW,2013-07-23 07:58:00,
2013-07-23 10:03:00,85.1,61.8,30.01,NNW,338,1.5,1.5,46,0.00,,,0.00,WUHU216HW,2013-07-23 08:03:00,
2013-07-23 10:08:00,84.0,61.6,30.01,NNW,338,1.1,2.0,47,0.00,,,0.00,WUHU216HW,2013-07-23 08:08:00,
2013-07-23 10:13:00,83.6,61.8,30.02,NE,45,0.6,3.8,48,0.00,,,0.00,WUHU216HW,2013-07-23 08:13:00,
2013-07-23 10:18:00,83.3,62.1,30.02,North,0,2.6,3.8,49,0.00,,,0.00,WUHU216HW,2013-07-23 08:18:00,
2013-07-23 10:23:00,83.1,62.6,30.01,WSW,248,1.5,4.2,50,0.00,,,0.00,WUHU216HW,2013-07-23 08:23:00,
2013-07-23 10:28:00,83.8,62.0,30.01,North,0,2.4,4.2,48,0.00,,,0.00,WUHU216HW,2013-07-23 08:28:00,
2013-07-23 10:33:00,83.4,61.0,30.01,North,0,1.3,2.6,47,0.00,,,0.00,WUHU216HW,2013-07-23 08:33:00,
2013-07-23 10:38:00,84.2,61.7,30.01,NE,45,0.0,2.6,47,0.00,,,0.00,WUHU216HW,2013-07-23 08:38:00,
2013-07-23 10:43:00,85.2,62.1,30.01,NNE,23,1.5,1.5,46,0.00,,,0.00,WUHU216HW,2013-07-23 08:43:00,
2013-07-23 10:49:00,85.4,62.1,30.01,NW,315,1.3,1.5,46,0.00,,,0.00,WUHU216HW,2013-07-23 08:49:00,
2013-07-23 10:54:00,85.2,61.5,30.01,East,90,2.0,2.0,45,0.00,,,0.00,WUHU216HW,2013-07-23 08:54:00,
2013-07-23 10:59:00,85.6,61.6,30.01,ENE,68,5.8,6.7,45,0.00,,,0.00,WUHU216HW,2013-07-23 08:59:00,
2013-07-23 11:04:00,85.1,61.3,30.01,East,90,0.8,6.7,45,0.00,,,0.00,WUHU216HW,2013-07-23 09:04:00,
2013-07-23 11:09:00,85.8,61.9,30.02,WSW,248,0.0,3.1,45,0.00,,,0.00,WUHU216HW,2013-07-23 09:09:00,
2013-07-23 11:14:00,85.4,61.6,30.02,SSW,203,1.5,5.5,45,0.00,,,0.00,WUHU216HW,2013-07-23 09:14:00,
2013-07-23 11:19:00,84.7,61.0,30.01,SSW,196,4.5,6.4,45,0.00,,,0.00,WUHU216HW,2013-07-23 09:19:00,
2013-07-23 11:24:00,84.9,61.8,30.02,WSW,248,4.9,6.4,46,0.00,,,0.00,WUHU216HW,2013-07-23 09:24:00,
2013-07-23 11:29:00,85.8,63.2,30.01,SW,225,1.7,4.9,47,0.00,,,0.00,WUHU216HW,2013-07-23 09:29:00,
2013-07-23 11:34:00,85.6,62.9,30.02,SSE,162,2.8,4.4,47,0.00,,,0.00,WUHU216HW,2013-07-23 09:34:00,
2013-07-23 11:39:00,86.3,63.1,30.02,SSE,158,5.1,6.0,46,0.00,,,0.00,WUHU216HW,2013-07-23 09:39:00,
2013-07-23 11:44:00,85.8,61.9,30.01,SSW,213,3.0,6.0,45,0.00,,,0.00,WUHU216HW,2013-07-23 09:44:00,
2013-07-23 11:49:00,85.8,61.9,30.01,South,180,5.3,5.3,45,0.00,,,0.00,WUHU216HW,2013-07-23 09:49:00,
2013-07-23 11:54:00,85.8,62.6,30.01,SSE,158,2.9,5.3,46,0.00,,,0.00,WUHU216HW,2013-07-23 09:54:00,
2013-07-23 11:59:00,86.7,62.1,30.01,SSE,158,1.5,4.0,44,0.00,,,0.00,WUHU216HW,2013-07-23 09:59:00,
2013-07-23 12:04:00,86.7,62.3,30.01,SSW,203,3.3,5.1,44,0.00,,,0.00,WUHU216HW,2013-07-23 10:04:00,
2013-07-23 12:10:00,87.2,63.2,30.01,West,270,0.0,5.1,45,0.00,,,0.00,WUHU216HW,2013-07-23 10:10:00,
2013-07-23 12:14:00,87.0,62.4,30.01,WNW,293,2.7,3.8,44,0.00,,,0.00,WUHU216HW,2013-07-23 10:14:00,
2013-07-23 12:19:00,86.3,61.8,30.00,NNW,338,3.5,3.8,44,0.00,,,0.00,WUHU216HW,2013-07-23 10:19:00,
2013-07-23 12:25:00,86.9,62.9,30.00,South,180,1.7,3.5,45,0.00,,,0.00,WUHU216HW,2013-07-23 10:25:00,
2013-07-23 12:30:00,88.1,62.7,30.00,ESE,116,2.2,3.1,43,0.00,,,0.00,WUHU216HW,2013-07-23 10:30:00,
2013-07-23 12:35:00,88.8,63.3,30.00,WSW,246,1.4,3.1,43,0.00,,,0.00,WUHU216HW,2013-07-23 10:35:00,
2013-07-23 12:40:00,89.2,62.9,30.00,SSE,158,1.5,2.6,42,0.00,,,0.00,WUHU216HW,2013-07-23 10:40:00,
2013-07-23 12:45:00,88.3,62.3,30.00,SSW,194,1.6,4.0,42,0.00,,,0.00,WUHU216HW,2013-07-23 10:45:00,
2013-07-23 12:50:00,88.3,62.3,30.00,SSW,203,1.7,4.0,42,0.00,,,0.00,WUHU216HW,2013-07-23 10:50:00,
2013-07-23 12:55:00,88.3,62.9,30.00,West,270,2.9,3.1,43,0.00,,,0.00,WUHU216HW,2013-07-23 10:55:00,
2013-07-23 13:00:00,87.9,62.6,30.00,North,0,2.2,3.1,43,0.00,,,0.00,WUHU216HW,2013-07-23 11:00:00,
2013-07-23 13:05:00,87.9,62.6,30.00,North,0,2.9,4.0,43,0.00,,,0.00,WUHU216HW,2013-07-23 11:05:00,
2013-07-23 13:10:00,88.8,63.2,30.00,North,0,4.4,4.6,43,0.00,,,0.00,WUHU216HW,2013-07-23 11:10:00,
2013-07-23 13:15:00,88.7,62.4,30.00,NE,51,1.6,5.1,42,0.00,,,0.00,WUHU216HW,2013-07-23 11:15:00,
2013-07-23 13:20:00,89.4,63.8,30.00,NW,315,2.2,5.1,43,0.00,,,0.00,WUHU216HW,2013-07-23 11:20:00,
2013-07-23 13:26:00,88.5,62.4,30.00,NNE,23,2.0,3.8,42,0.00,,,0.00,WUHU216HW,2013-07-23 11:26:00,
2013-07-23 13:31:00,87.9,62.6,30.00,NW,315,1.5,3.8,43,0.00,,,0.00,WUHU216HW,2013-07-23 11:31:00,
2013-07-23 13:36:00,87.8,63.6,30.00,NE,45,3.1,3.1,45,0.00,,,0.00,WUHU216HW,2013-07-23 11:36:00,
2013-07-23 13:41:00,88.1,64.0,30.00,NE,45,3.1,4.6,45,0.00,,,0.00,WUHU216HW,2013-07-23 11:41:00,
2013-07-23 13:46:00,88.3,64.8,30.00,NNE,23,2.8,4.6,46,0.00,,,0.00,WUHU216HW,2013-07-23 11:46:00,
2013-07-23 13:51:00,88.7,64.5,30.00,SSE,158,1.3,3.5,45,0.00,,,0.00,WUHU216HW,2013-07-23 11:51:00,
2013-07-23 13:56:00,88.5,64.3,30.00,North,0,1.3,3.1,45,0.00,,,0.00,WUHU216HW,2013-07-23 11:56:00,
2013-07-23 14:01:00,89.2,64.9,30.00,SW,225,3.5,3.5,45,0.00,,,0.00,WUHU216HW,2013-07-23 12:01:00,
2013-07-23 14:06:00,90.6,66.2,30.00,West,270,0.0,3.5,45,0.00,,,0.00,WUHU216HW,2013-07-23 12:06:00,
2013-07-23 14:11:00,91.0,65.3,30.00,NW,315,2.4,2.4,43,0.00,,,0.00,WUHU216HW,2013-07-23 12:11:00,
2013-07-23 14:16:00,90.5,65.4,30.00,South,180,0.0,2.9,44,0.00,,,0.00,WUHU216HW,2013-07-23 12:16:00,
2013-07-23 14:21:00,91.7,65.9,30.00,South,180,1.7,2.9,43,0.00,,,0.00,WUHU216HW,2013-07-23 12:21:00,
2013-07-23 14:26:00,92.6,65.4,30.00,NE,45,2.2,2.2,41,0.00,,,0.00,WUHU216HW,2013-07-23 12:26:00,
2013-07-23 14:31:00,92.4,65.3,30.00,West,270,0.0,2.2,41,0.00,,,0.00,WUHU216HW,2013-07-23 12:31:00,
2013-07-23 14:36:00,90.8,64.4,30.00,WSW,255,1.1,1.7,42,0.00,,,0.00,WUHU216HW,2013-07-23 12:36:00,
2013-07-23 14:41:00,89.4,65.1,30.00,SSW,203,7.1,7.1,45,0.00,,,0.00,WUHU216HW,2013-07-23 12:41:00,
2013-07-23 14:46:00,89.2,66.2,30.00,SSW,203,5.3,7.1,47,0.00,,,0.00,WUHU216HW,2013-07-23 12:46:00,
2013-07-23 14:51:00,89.4,65.7,30.00,South,175,4.8,7.6,46,0.00,,,0.00,WUHU216HW,2013-07-23 12:51:00,
2013-07-23 14:56:00,89.7,65.4,30.00,SSE,158,5.1,7.6,45,0.00,,,0.00,WUHU216HW,2013-07-23 12:56:00,
2013-07-23 15:01:00,89.6,65.9,30.00,SSW,203,8.9,8.9,46,0.00,,,0.00,WUHU216HW,2013-07-23 13:01:00,
2013-07-23 15:06:00,89.4,66.4,30.00,South,180,4.6,9.6,47,0.00,,,0.00,WUHU216HW,2013-07-23 13:06:00,
2013-07-23 15:11:00,88.8,65.9,30.00,SSW,194,6.6,11.8,47,0.00,,,0.00,WUHU216HW,2013-07-23 13:11:00,
2013-07-23 15:16:00,88.8,65.9,29.99,SSE,158,7.6,11.8,47,0.00,,,0.00,WUHU216HW,2013-07-23 13:16:00,
2013-07-23 15:21:00,89.6,66.5,29.99,SSW,203,5.4,7.6,47,0.00,,,0.00,WUHU216HW,2013-07-23 13:21:00,
2013-07-23 15:26:00,89.0,66.1,29.99,SSW,207,3.8,10.9,47,0.00,,,0.00,WUHU216HW,2013-07-23 13:26:00,
2013-07-23 15:31:00,89.2,66.2,30.00,SW,234,4.9,10.9,47,0.00,,,0.00,WUHU216HW,2013-07-23 13:31:00,
2013-07-23 15:36:00,89.4,65.7,30.00,SW,225,9.3,9.3,46,0.00,,,0.00,WUHU216HW,2013-07-23 13:36:00,
2013-07-23 15:41:00,89.4,66.4,30.00,South,180,8.0,9.3,47,0.00,,,0.00,WUHU216HW,2013-07-23 13:41:00,
2013-07-23 15:46:00,89.2,66.2,29.99,SSW,203,12.5,12.5,47,0.00,,,0.00,WUHU216HW,2013-07-23 13:46:00,
2013-07-23 15:51:00,88.5,66.2,29.99,South,178,8.9,12.5,48,0.00,,,0.00,WUHU216HW,2013-07-23 13:51:00,
2013-07-23 15:56:00,88.3,66.2,30.00,SW,225,7.9,10.7,48,0.00,,,0.00,WUHU216HW,2013-07-23 13:56:00,
2013-07-23 16:01:00,87.9,66.2,30.00,SSW,211,3.9,10.5,49,0.00,,,0.00,WUHU216HW,2013-07-23 14:01:00,
2013-07-23 16:06:00,88.8,65.9,30.00,SSW,203,11.8,11.8,47,0.00,,,0.00,WUHU216HW,2013-07-23 14:06:00,
2013-07-23 16:11:00,88.5,66.2,30.00,WSW,248,4.2,11.8,48,0.00,,,0.00,WUHU216HW,2013-07-23 14:11:00,
2013-07-23 16:16:00,88.5,66.2,30.00,SSW,203,9.1,9.1,48,0.00,,,0.00,WUHU216HW,2013-07-23 14:16:00,
2013-07-23 16:21:00,88.1,66.5,30.00,SW,225,7.3,9.1,49,0.00,,,0.00,WUHU216HW,2013-07-23 14:21:00,
2013-07-23 16:26:00,88.5,66.2,30.00,SE,135,1.3,7.3,48,0.00,,,0.00,WUHU216HW,2013-07-23 14:26:00,
2013-07-23 16:31:00,88.1,65.9,30.00,SW,225,12.3,12.3,48,0.00,,,0.00,WUHU216HW,2013-07-23 14:31:00,
2013-07-23 16:36:00,87.4,65.9,30.00,WSW,241,2.8,12.3,49,0.00,,,0.00,WUHU216HW,2013-07-23 14:36:00,
2013-07-23 16:41:00,87.6,65.4,29.99,WSW,248,3.5,10.5,48,0.00,,,0.00,WUHU216HW,2013-07-23 14:41:00,
2013-07-23 16:46:00,87.6,66.1,29.99,SSE,158,5.1,10.9,49,0.00,,,0.00,WUHU216HW,2013-07-23 14:46:00,
2013-07-23 16:52:00,88.1,65.9,29.99,SSW,203,6.4,10.9,48,0.00,,,0.00,WUHU216HW,2013-07-23 14:52:00,
2013-07-23 16:57:00,88.7,66.4,29.99,SSE,158,10.7,10.7,48,0.00,,,0.00,WUHU216HW,2013-07-23 14:57:00,
2013-07-23 17:02:00,88.5,66.2,29.99,SSW,203,2.2,10.7,48,0.00,,,0.00,WUHU216HW,2013-07-23 15:02:00,
2013-07-23 17:07:00,88.8,66.5,29.99,SSW,203,9.1,9.1,48,0.00,,,0.00,WUHU216HW,2013-07-23 15:07:00,
2013-07-23 17:12:00,88.7,66.4,29.99,SSE,158,6.9,9.1,48,0.00,,,0.00,WUHU216HW,2013-07-23 15:12:00,
2013-07-23 17:17:00,88.8,66.5,29.99,ESE,113,7.6,7.6,48,0.00,,,0.00,WUHU216HW,2013-07-23 15:17:00,
2013-07-23 17:22:00,88.8,66.5,29.99,SSW,203,4.6,7.6,48,0.00,,,0.00,WUHU216HW,2013-07-23 15:22:00,
2013-07-23 17:27:00,87.4,65.4,29.99,WSW,248,3.5,12.0,48,0.00,,,0.00,WUHU216HW,2013-07-23 15:27:00,
2013-07-23 17:32:00,86.9,66.1,29.99,South,170,4.6,12.0,50,0.00,,,0.00,WUHU216HW,2013-07-23 15:32:00,
2013-07-23 17:37:00,86.9,66.6,29.99,SE,135,4.0,5.8,51,0.00,,,0.00,WUHU216HW,2013-07-23 15:37:00,
2013-07-23 17:42:00,86.9,66.1,29.99,SSE,158,2.6,8.9,50,0.00,,,0.00,WUHU216HW,2013-07-23 15:42:00,
2013-07-23 17:47:00,86.7,65.9,29.99,South,180,6.4,8.9,50,0.00,,,0.00,WUHU216HW,2013-07-23 15:47:00,
2013-07-23 17:52:00,86.5,66.8,29.99,South,173,6.6,8.9,51,0.00,,,0.00,WUHU216HW,2013-07-23 15:52:00,
2013-07-23 17:57:00,86.3,66.1,29.99,SSE,158,3.3,8.9,51,0.00,,,0.00,WUHU216HW,2013-07-23 15:57:00,
2013-07-23 18:02:00,86.3,66.6,29.99,South,180,10.0,10.0,52,0.00,,,0.00,WUHU216HW,2013-07-23 16:02:00,
2013-07-23 18:07:00,86.0,66.8,29.99,South,180,6.0,10.0,53,0.00,,,0.00,WUHU216HW,2013-07-23 16:07:00,
2013-07-23 18:12:00,86.0,67.3,29.99,SE,135,5.3,7.8,54,0.00,,,0.00,WUHU216HW,2013-07-23 16:12:00,
2013-07-23 18:17:00,85.6,67.0,29.99,South,180,3.8,6.7,54,0.00,,,0.00,WUHU216HW,2013-07-23 16:17:00,
2013-07-23 18:22:00,85.6,67.5,29.99,SSE,158,4.6,6.9,55,0.00,,,0.00,WUHU216HW,2013-07-23 16:22:00,
2013-07-23 18:27:00,86.1,69.1,29.99,South,171,2.8,6.9,57,0.00,,,0.00,WUHU216HW,2013-07-23 16:27:00,
2013-07-23 18:32:00,85.6,69.6,29.99,South,188,5.6,8.2,59,0.00,,,0.00,WUHU216HW,2013-07-23 16:32:00,
2013-07-23 18:37:00,84.7,69.3,29.99,South,180,7.6,10.7,60,0.00,,,0.00,WUHU216HW,2013-07-23 16:37:00,
2013-07-23 18:42:00,84.0,70.0,29.99,SSW,206,4.1,10.7,63,0.00,,,0.00,WUHU216HW,2013-07-23 16:42:00,
2013-07-23 18:47:00,83.8,69.8,29.99,SSW,203,6.0,10.0,63,0.00,,,0.00,WUHU216HW,2013-07-23 16:47:00,
2013-07-23 18:52:00,83.6,70.1,29.99,South,180,5.3,10.0,64,0.00,,,0.00,WUHU216HW,2013-07-23 16:52:00,
2013-07-23 18:57:00,83.3,70.2,29.99,SSW,203,6.2,15.2,65,0.00,,,0.00,WUHU216HW,2013-07-23 16:57:00,
2013-07-23 19:02:00,83.4,70.4,29.99,WSW,248,9.1,15.2,65,0.00,,,0.00,WUHU216HW,2013-07-23 17:02:00,
2013-07-23 19:07:00,83.1,70.5,29.99,SSW,206,5.0,12.9,66,0.00,,,0.00,WUHU216HW,2013-07-23 17:07:00,
2013-07-23 19:12:00,83.1,69.6,29.99,South,188,5.7,12.9,64,0.00,,,0.00,WUHU216HW,2013-07-23 17:12:00,
2013-07-23 19:17:00,83.3,69.3,29.99,SW,225,4.6,8.0,63,0.00,,,0.00,WUHU216HW,2013-07-23 17:17:00,
2013-07-23 19:22:00,83.1,69.4,29.99,WSW,248,7.3,8.2,64,0.00,,,0.00,WUHU216HW,2013-07-23 17:22:00,
2013-07-23 19:27:00,83.1,70.0,29.99,South,180,4.2,8.2,65,0.00,,,0.00,WUHU216HW,2013-07-23 17:27:00,
2013-07-23 19:32:00,82.7,69.2,29.99,SW,225,6.0,8.9,64,0.00,,,0.00,WUHU216HW,2013-07-23 17:32:00,
2013-07-23 19:37:00,82.5,69.5,30.00,SSW,203,1.3,8.9,65,0.00,,,0.00,WUHU216HW,2013-07-23 17:37:00,
2013-07-23 19:42:00,82.7,69.2,30.00,West,270,4.9,4.9,64,0.00,,,0.00,WUHU216HW,2013-07-23 17:42:00,
2013-07-23 19:48:00,82.7,69.2,30.00,West,270,0.0,4.9,64,0.00,,,0.00,WUHU216HW,2013-07-23 17:48:00,
2013-07-23 19:53:00,82.2,69.1,30.00,SW,235,3.8,4.0,65,0.00,,,0.00,WUHU216HW,2013-07-23 17:53:00,
2013-07-23 19:58:00,82.2,68.2,30.01,SSW,201,3.5,4.6,63,0.00,,,0.00,WUHU216HW,2013-07-23 17:58:00,
2013-07-23 20:03:00,82.5,68.1,30.01,WSW,248,1.5,4.6,62,0.00,,,0.00,WUHU216HW,2013-07-23 18:03:00,
2013-07-23 20:08:00,82.2,68.7,30.01,WSW,248,0.0,2.4,64,0.00,,,0.00,WUHU216HW,2013-07-23 18:08:00,
2013-07-23 20:13:00,82.0,69.0,30.01,West,270,0.0,2.0,65,0.00,,,0.00,WUHU216HW,2013-07-23 18:13:00,
2013-07-23 20:18:00,82.0,69.0,30.01,North,0,0.0,0.0,65,0.00,,,0.00,WUHU216HW,2013-07-23 18:18:00,
2013-07-23 20:23:00,82.0,68.5,30.01,SE,135,0.0,0.0,64,0.00,,,0.00,WUHU216HW,2013-07-23 18:23:00,
2013-07-23 20:29:00,81.8,68.8,30.01,North,0,1.1,2.4,65,0.00,,,0.00,WUHU216HW,2013-07-23 18:29:00,
2013-07-23 20:34:00,81.3,68.3,30.01,WNW,293,3.1,3.1,65,0.00,,,0.00,WUHU216HW,2013-07-23 18:34:00,
2013-07-23 20:39:00,81.1,67.7,30.01,West,270,0.0,3.1,64,0.00,,,0.00,WUHU216HW,2013-07-23 18:39:00,
2013-07-23 20:44:00,80.9,67.6,30.01,West,270,2.4,3.1,64,0.00,,,0.00,WUHU216HW,2013-07-23 18:44:00,
2013-07-23 20:50:00,80.7,67.4,30.02,WNW,293,0.0,2.4,64,0.00,,,0.00,WUHU216HW,2013-07-23 18:50:00,
2013-07-23 20:55:00,80.4,67.1,30.02,WSW,248,0.0,1.3,64,0.00,,,0.00,WUHU216HW,2013-07-23 18:55:00,
2013-07-23 21:00:00,80.4,67.5,30.02,ENE,68,0.0,0.0,65,0.00,,,0.00,WUHU216HW,2013-07-23 19:00:00,
2013-07-23 21:05:00,80.0,67.8,30.02,ENE,68,1.5,1.5,66,0.00,,,0.00,WUHU216HW,2013-07-23 19:05:00,
2013-07-23 21:11:00,79.7,67.3,30.02,East,90,0.0,1.5,66,0.00,,,0.00,WUHU216HW,2013-07-23 19:11:00,
2013-07-23 21:16:00,79.5,67.5,30.02,ESE,113,0.8,0.8,67,0.00,,,0.00,WUHU216HW,2013-07-23 19:16:00,
2013-07-23 21:21:00,79.1,67.6,30.02,East,90,2.4,2.4,68,0.00,,,0.00,WUHU216HW,2013-07-23 19:21:00,
2013-07-23 21:26:00,78.9,67.4,30.02,East,90,1.5,2.4,68,0.00,,,0.00,WUHU216HW,2013-07-23 19:26:00,
2013-07-23 21:32:00,78.8,67.7,30.02,East,90,1.7,1.7,69,0.00,,,0.00,WUHU216HW,2013-07-23 19:32:00,
2013-07-23 21:37:00,78.6,67.5,30.02,ENE,68,0.0,1.7,69,0.00,,,0.00,WUHU216HW,2013-07-23 19:37:00,
2013-07-23 21:42:00,78.4,67.8,30.02,SE,135,0.8,1.3,70,0.00,,,0.00,WUHU216HW,2013-07-23 19:42:00,
2013-07-23 21:47:00,78.0,67.5,30.02,NNE,23,0.0,0.8,70,0.00,,,0.00,WUHU216HW,2013-07-23 19:47:00,
2013-07-23 21:52:00,77.7,67.9,30.02,NNE,23,0.0,2.2,72,0.00,,,0.00,WUHU216HW,2013-07-23 19:52:00,
2013-07-23 21:57:00,77.5,67.8,30.03,ENE,68,0.0,2.2,72,0.00,,,0.00,WUHU216HW,2013-07-23 19:57:00,
2013-07-23 22:02:00,77.1,67.8,30.02,North,0,1.5,1.5,73,0.00,,,0.00,WUHU216HW,2013-07-23 20:02:00,
2013-07-23 22:07:00,76.6,67.7,30.03,East,90,0.0,1.5,74,0.00,,,0.00,WUHU216HW,2013-07-23 20:07:00,
2013-07-23 22:13:00,76.4,67.5,30.03,North,0,0.0,0.0,74,0.00,,,0.00,WUHU216HW,2013-07-23 20:13:00,
2013-07-23 22:18:00,76.1,67.5,30.02,North,0,1.3,1.3,75,0.00,,,0.00,WUHU216HW,2013-07-23 20:18:00,
2013-07-23 22:23:00,75.9,67.4,30.02,NE,45,0.0,1.3,75,0.00,,,0.00,WUHU216HW,2013-07-23 20:23:00,
2013-07-23 22:28:00,75.9,67.4,30.02,NE,45,1.1,2.0,75,0.00,,,0.00,WUHU216HW,2013-07-23 20:28:00,
2013-07-23 22:34:00,75.9,67.4,30.02,NW,315,0.0,2.0,75,0.00,,,0.00,WUHU216HW,2013-07-23 20:34:00,
2013-07-23 22:39:00,75.5,67.4,30.03,North,0,0.0,0.0,76,0.00,,,0.00,WUHU216HW,2013-07-23 20:39:00,
2013-07-23 22:44:00,75.3,67.2,30.03,NNE,23,0.0,0.0,76,0.00,,,0.00,WUHU216HW,2013-07-23 20:44:00,
2013-07-23 22:49:00,75.0,66.9,30.03,NNW,338,0.0,1.7,76,0.00,,,0.00,WUHU216HW,2013-07-23 20:49:00,
2013-07-23 22:54:00,74.8,66.7,30.03,NNW,338,0.0,1.7,76,0.00,,,0.00,WUHU216HW,2013-07-23 20:54:00,
2013-07-23 22:59:00,74.4,66.8,30.03,North,0,0.0,1.7,77,0.00,,,0.00,WUHU216HW,2013-07-23 20:59:00,
2013-07-23 23:04:00,74.3,66.6,30.03,NNW,338,0.0,0.0,77,0.00,,,0.00,WUHU216HW,2013-07-23 21:04:00,
2013-07-23 23:09:00,73.9,66.6,30.03,NNE,23,0.0,0.0,78,0.00,,,0.00,WUHU216HW,2013-07-23 21:09:00,
2013-07-23 23:15:00,73.7,66.1,30.03,NNE,23,1.1,1.5,77,0.00,,,0.00,WUHU216HW,2013-07-23 21:15:00,
2013-07-23 23:20:00,73.5,65.9,30.03,East,90,0.0,1.5,77,0.00,,,0.00,WUHU216HW,2013-07-23 21:20:00,
2013-07-23 23:26:00,73.5,65.9,30.03,NE,45,0.0,0.0,77,0.00,,,0.00,WUHU216HW,2013-07-23 21:26:00,
2013-07-23 23:31:00,73.5,65.9,30.03,NE,45,0.0,0.0,77,0.00,,,0.00,WUHU216HW,2013-07-23 21:31:00,
2013-07-23 23:36:00,73.7,66.5,30.04,ENE,68,0.0,0.0,77,0.00,,,0.00,WUHU216HW,2013-07-23 21:36:00,
2013-07-23 23:41:00,73.7,66.5,30.04,NE,45,0.0,0.0,78,0.00,,,0.00,WUHU216HW,2013-07-23 21:41:00,
2013-07-23 23:46:00,73.7,66.1,30.04,East,90,0.0,0.0,77,0.00,,,0.00,WUHU216HW,2013-07-23 21:46:00,
2013-07-23 23:51:00,73.7,66.1,30.04,ENE,68,0.0,0.0,77,0.00,,,0.00,WUHU216HW,2013-07-23 21:51:00,
2013-07-23 23:56:00,73.9,66.6,30.04,North,0,0.0,0.0,78,0.00,,,0.00,WUHU216HW,2013-07-23 21:56:00,